• în România
  • Lista ţărilor
  • Pe 7 zile
  • Temperatura apei
  • Hartă satelitară
  • Meteo pe hartă
  • Widget-uri
  • user-avatar
    Intrare

    Meteo pe oră la Satu Mare

    Astăzi, 18 Iulie, Miercuri

    Timp Temperatura Precipitaţii Vânt Presiune Umiditate
    00:00 +19°C° 0,2 mm 1 m/s 743 mmHg 89%
    01:00 +19°C° 0,2 mm 1 m/s 743 mmHg 91%
    02:00 +18°C° 0 mm 1 m/s 743 mmHg 92%
    03:00 +18°C° 0,1 mm 1 m/s 743 mmHg 92%
    04:00 +18°C° 0,1 mm 1 m/s 743 mmHg 93%
    05:00 +18°C° 0,1 mm 1 m/s 743 mmHg 94%
    06:00 +18°C° 0,3 mm 1 m/s 743 mmHg 94%
    07:00 +18°C° 0,3 mm 2 m/s 743 mmHg 93%
    08:00 +19°C° 0 mm 2 m/s 743 mmHg 92%
    09:00 +20°C° 0,3 mm 2 m/s 743 mmHg 90%
    10:00 +20°C° 0,3 mm 2 m/s 743 mmHg 87%
    11:00 +21°C° 0,3 mm 2 m/s 743 mmHg 85%
    12:00 +23°C° 1,2 mm 2 m/s 743 mmHg 83%
    13:00 +24°C° 1,2 mm 2 m/s 743 mmHg 81%
    14:00 +25°C° 1,2 mm 2 m/s 743 mmHg 79%
    15:00 +25°C° 1,2 mm 2 m/s 743 mmHg 79%
    16:00 +25°C° 1,2 mm 3 m/s 743 mmHg 79%
    17:00 +25°C° 1,2 mm 3 m/s 743 mmHg 80%
    18:00 +24°C° 0,6 mm 2 m/s 743 mmHg 84%
    19:00 +23°C° 0,6 mm 2 m/s 743 mmHg 87%
    20:00 +22°C° 0,6 mm 1 m/s 743 mmHg 91%
    21:00 +21°C° 0,1 mm 1 m/s 743 mmHg 92%
    22:00 +21°C° 0,1 mm 1 m/s 743 mmHg 94%
    23:00 +20°C° 0,1 mm 1 m/s 744 mmHg 95%

    Mâine, 19 Iulie, Joi

    Timp Temperatura Precipitaţii Vânt Presiune Umiditate
    00:00 +20°C° 0 mm 1 m/s 744 mmHg 95%
    01:00 +20°C° 0 mm 1 m/s 744 mmHg 96%
    02:00 +19°C° 0 mm 1 m/s 744 mmHg 96%
    03:00 +19°C° 0 mm 1 m/s 744 mmHg 97%
    04:00 +19°C° 0 mm 1 m/s 744 mmHg 97%
    05:00 +19°C° 0 mm 1 m/s 744 mmHg 97%
    06:00 +19°C° 0,1 mm 2 m/s 744 mmHg 95%
    07:00 +20°C° 0,1 mm 2 m/s 745 mmHg 93%
    08:00 +21°C° 0,1 mm 2 m/s 745 mmHg 90%
    09:00 +24°C° 0,3 mm 3 m/s 745 mmHg 87%
    10:00 +25°C° 0,3 mm 3 m/s 745 mmHg 83%
    11:00 +26°C° 0,3 mm 4 m/s 746 mmHg 79%
    12:00 +26°C° 0,8 mm 4 m/s 746 mmHg 77%
    13:00 +27°C° 0,8 mm 4 m/s 746 mmHg 75%
    14:00 +28°C° 0,8 mm 5 m/s 746 mmHg 72%
    15:00 +27°C° 0,2 mm 5 m/s 746 mmHg 73%
    16:00 +27°C° 0,2 mm 5 m/s 746 mmHg 74%
    17:00 +27°C° 0,2 mm 5 m/s 746 mmHg 75%
    18:00 +26°C° 0,3 mm 4 m/s 746 mmHg 79%
    19:00 +23°C° 0,3 mm 4 m/s 746 mmHg 82%
    20:00 +22°C° 0,3 mm 3 m/s 746 mmHg 86%
    21:00 +22°C° 0 mm 3 m/s 747 mmHg 86%
    22:00 +21°C° 0 mm 3 m/s 747 mmHg 87%
    23:00 +20°C° 0 mm 3 m/s 747 mmHg 88%

    Poimâine, 20 Iulie, Vineri

    Timp Temperatura Precipitaţii Vânt Presiune Umiditate
    00:00 +20°C° 0 mm 3 m/s 747 mmHg 89%
    01:00 +20°C° 0 mm 3 m/s 747 mmHg 90%
    02:00 +19°C° 0 mm 2 m/s 747 mmHg 91%
    03:00 +19°C° 0 mm 2 m/s 747 mmHg 91%
    04:00 +19°C° 0 mm 2 m/s 747 mmHg 92%
    05:00 +18°C° 0 mm 2 m/s 747 mmHg 93%
    06:00 +19°C° 0 mm 2 m/s 747 mmHg 90%
    07:00 +20°C° 0 mm 2 m/s 748 mmHg 87%
    08:00 +21°C° 0 mm 2 m/s 748 mmHg 84%
    09:00 +24°C° 0,1 mm 3 m/s 748 mmHg 80%
    10:00 +25°C° 0,1 mm 3 m/s 748 mmHg 77%
    11:00 +26°C° 0,1 mm 3 m/s 748 mmHg 74%
    12:00 +26°C° 0,5 mm 4 m/s 748 mmHg 71%
    13:00 +27°C° 0,5 mm 4 m/s 748 mmHg 68%
    14:00 +28°C° 0,5 mm 4 m/s 747 mmHg 66%
    15:00 +28°C° 0,1 mm 4 m/s 747 mmHg 65%
    16:00 +28°C° 0,1 mm 4 m/s 747 mmHg 65%
    17:00 +28°C° 0,1 mm 4 m/s 747 mmHg 64%
    18:00 +27°C° 0,2 mm 3 m/s 747 mmHg 69%
    19:00 +25°C° 0,2 mm 3 m/s 748 mmHg 74%
    20:00 +24°C° 0,2 mm 2 m/s 748 mmHg 79%
    21:00 +23°C° 0 mm 2 m/s 748 mmHg 80%
    22:00 +21°C° 0 mm 2 m/s 748 mmHg 82%
    23:00 +20°C° 0 mm 2 m/s 749 mmHg 84%

    21 Iulie, Sâmbătă

    Timp Temperatura Precipitaţii Vânt Presiune Umiditate
    00:00 +19°C° 0 mm 2 m/s 748 mmHg 85%
    01:00 +20°C° 0 mm 1 m/s 748 mmHg 87%
    02:00 +19°C° 0 mm 1 m/s 748 mmHg 89%
    03:00 +19°C° 0 mm 1 m/s 748 mmHg 90%
    04:00 +19°C° 0 mm 1 m/s 748 mmHg 91%
    05:00 +18°C° 0 mm 1 m/s 749 mmHg 92%
    06:00 +20°C° 0 mm 1 m/s 749 mmHg 87%
    07:00 +21°C° 0 mm 1 m/s 749 mmHg 83%
    08:00 +23°C° 0 mm 1 m/s 749 mmHg 78%
    09:00 +25°C° 0 mm 1 m/s 748 mmHg 73%
    10:00 +26°C° 0 mm 1 m/s 748 mmHg 67%
    11:00 +28°C° 0 mm 1 m/s 748 mmHg 61%
    12:00 +28°C° 0 mm 1 m/s 748 mmHg 59%
    13:00 +29°C° 0 mm 2 m/s 748 mmHg 57%
    14:00 +29°C° 0 mm 2 m/s 748 mmHg 55%
    15:00 +29°C° 0 mm 2 m/s 748 mmHg 56%
    16:00 +29°C° 0 mm 2 m/s 747 mmHg 56%
    17:00 +29°C° 0 mm 2 m/s 747 mmHg 57%
    18:00 +28°C° 0 mm 1 m/s 747 mmHg 62%
    19:00 +26°C° 0 mm 1 m/s 747 mmHg 67%
    20:00 +23°C° 0 mm 0 m/s 747 mmHg 72%
    21:00 +24°C° 0 mm 1 m/s 747 mmHg 74%
    22:00 +23°C° 0 mm 1 m/s 747 mmHg 77%
    23:00 +21°C° 0 mm 2 m/s 747 mmHg 79%

    22 Iulie, Duminică

    Timp Temperatura Precipitaţii Vânt Presiune Umiditate
    00:00 +21°C° 0,2 mm 2 m/s 747 mmHg 81%
    01:00 +20°C° 0,2 mm 2 m/s 747 mmHg 84%
    02:00 +20°C° 0,2 mm 2 m/s 747 mmHg 87%
    03:00 +20°C° 1,2 mm 1 m/s 746 mmHg 88%
    04:00 +20°C° 1,2 mm 1 m/s 746 mmHg 90%
    05:00 +20°C° 1,2 mm 1 m/s 746 mmHg 92%
    06:00 +21°C° 0,1 mm 1 m/s 746 mmHg 88%
    07:00 +21°C° 0,1 mm 2 m/s 746 mmHg 85%
    08:00 +24°C° 0,1 mm 2 m/s 745 mmHg 81%
    09:00 +25°C° 0,4 mm 2 m/s 745 mmHg 76%
    10:00 +27°C° 0,4 mm 2 m/s 745 mmHg 70%
    11:00 +28°C° 0,4 mm 2 m/s 744 mmHg 65%
    12:00 +29°C° 0,6 mm 2 m/s 744 mmHg 63%
    13:00 +29°C° 0,6 mm 3 m/s 744 mmHg 61%
    14:00 +30°C° 0,6 mm 3 m/s 744 mmHg 58%
    15:00 +30°C° 0,4 mm 3 m/s 744 mmHg 60%
    16:00 +29°C° 0,4 mm 3 m/s 743 mmHg 61%
    17:00 +29°C° 0,4 mm 2 m/s 743 mmHg 63%
    18:00 +28°C° 1 mm 2 m/s 743 mmHg 69%
    19:00 +26°C° 1 mm 2 m/s 744 mmHg 75%
    20:00 +24°C° 1 mm 1 m/s 744 mmHg 82%
    21:00 +23°C° 0 mm 1 m/s 744 mmHg 84%
    22:00 +23°C° 0 mm 1 m/s 744 mmHg 86%
    23:00 +22°C° 0 mm 1 m/s 744 mmHg 88%

    23 Iulie, Luni

    Timp Temperatura Precipitaţii Vânt Presiune Umiditate
    00:00 +21°C° 0 mm 1 m/s 744 mmHg 89%
    01:00 +21°C° 0 mm 1 m/s 744 mmHg 89%
    02:00 +18°C° 0 mm 0 m/s 744 mmHg 90%
    03:00 +20°C° 0 mm 1 m/s 744 mmHg 91%
    04:00 +20°C° 0 mm 1 m/s 744 mmHg 91%
    05:00 +20°C° 0 mm 1 m/s 745 mmHg 92%
    06:00 +21°C° 0 mm 1 m/s 745 mmHg 88%
    07:00 +22°C° 0 mm 1 m/s 745 mmHg 85%
    08:00 +24°C° 0 mm 1 m/s 745 mmHg 81%
    09:00 +25°C° 0,1 mm 2 m/s 745 mmHg 76%
    10:00 +27°C° 0,1 mm 2 m/s 745 mmHg 70%
    11:00 +28°C° 0,1 mm 2 m/s 745 mmHg 65%
    12:00 +29°C° 0,5 mm 2 m/s 745 mmHg 62%
    13:00 +30°C° 0,5 mm 2 m/s 745 mmHg 59%
    14:00 +31°C° 0,5 mm 3 m/s 745 mmHg 55%
    15:00 +31°C° 0,4 mm 3 m/s 745 mmHg 57%
    16:00 +31°C° 0,4 mm 3 m/s 745 mmHg 58%
    17:00 +30°C° 0,4 mm 3 m/s 745 mmHg 59%
    18:00 +29°C° 0,5 mm 3 m/s 745 mmHg 65%
    19:00 +27°C° 0,5 mm 3 m/s 746 mmHg 70%
    20:00 +25°C° 0,5 mm 3 m/s 746 mmHg 75%
    21:00 +24°C° 0 mm 3 m/s 746 mmHg 77%
    22:00 +22°C° 0 mm 3 m/s 747 mmHg 79%
    23:00 +21°C° 0 mm 3 m/s 747 mmHg 81%
    Arată mai mult